Location: Caltech
(34.1382°N, 118.1253°W)
Time: 00:16:31
(UTC-07:00)

FENGYUN 3A - Visible Passes

Search period start: 30 May 2017 00:00
Search period end: 09 June 2017 00:00
Orbit: 820 x 833 km, 98.4° (Epoch: 29 May)

Date Brightness Start Highest point End Pass type
(mag) Time Alt. Az. Time Alt. Az. Time Alt. Az.
30 May 5.9 20:52:59 10° SSW 20:57:10 23° W 21:01:23 10° NW visible
31 May 5.3 20:33:18 10° SSW 20:38:09 35° W 20:43:04 10° NNW visible
03 Jun 6.4 21:19:46 10° WSW 21:22:02 13° W 21:24:17 10° WNW visible
04 Jun 6.1 20:59:06 10° SW 21:02:57 20° W 21:06:49 10° NW visible
05 Jun 5.5 20:39:14 10° SSW 20:43:55 30° W 20:48:38 10° NW visible
08 Jun 6.6 21:26:47 10° WSW 21:27:50 11° W 21:28:53 10° W visible
